SL-16 DEB, 31794

Orbit data source: Space-Track

SL-16 DEB, 31794 is space debris in LEO originally from a launch on Fri, 29 Jun 2007 UTC launched from the Tyuratam Missile And Space Complex (TTMTR). Debris objects in space refer to the collection of defunct objects orbiting the Earth. Examples of debris include non-operational satellites, rocket bodies, and fragments generated from explosions, collisions, or faulty payload assembly.

Loading next visibility...
Identifier
31794, 2007-029C
Orbit
LEO
Country
Flag of CISCIS
Related business
Manufacturer
Yuzhnoe
Mission
Spacecraft
Bus & Motor
SEP MOTOR COVER, Unknown motor
Mass
~1 kg wet, ~1 kg dry
Launch date (UTC)
2007-06-29 (19 years ago)
Launch vehicle
Unknown
Launch site
Tyuratam Missile And Space Complex (TTMTR)
Object type
Payload
Rocket body
Debris
Shape & HBR
Cone, 0.5 m
Radar Cross Section
0.635 m², Medium (>0.1 m² and < 1m²)

Expand to show TLE details & history
Last TLE update: 2 days ago

TLE from 2 days ago
0 SL-16 DEB
1 31794U 07029C   26171.46469507 -.00000010  00000-0  32110-4 0  9993
2 31794  71.0443 290.9213 0206132 303.3190 122.4847 13.71789239949790
Epoch: 2026-06-20T11:09Z
TLE epoch observation values (Epoch: 2026-06-20T11:09:09.654Z)
Latitude
61.20447°
Longitude
-106.60931°
Altitude
1,086.881 km
Speed
7.273 km/s
True Right ascension
21h 57m 26s
True Declination
61° 03' 56"
Sunlit
Object was in daylight at epoch
Visualization orbit readout
Latitude
Unknown
Longitude
Unknown
Altitude
Unknown
Speed
Unknown
Apparent Right ascension
Unknown
Apparent Declination
Unknown
Sunlit
N/A
Visualization observer readout
Local Sidereal Time
23:20:24
Azimuth
Unknown
Elevation
Unknown
Doppler factor
Unknown
Orbital elements
Apogee altitude
1,143.02 km
Perigee altitude
839.212 km
Semi-major axis
7,369.253 km
Eccentricity
0.02061
Inclination
71.0443°
RAAN
290.9213°
Arg. of periapsis
303.319°
True anomaly
124.44962°
Mean anomaly
122.4847°
Eccentric anomaly
123.4699°
Mean motion
3.4309 °/min
Orbital period
104.93 mins
BSTAR
0.00003211
Loading maneuver chart data...
Computing Atmospheric mass density...

Documentation

Showing up to 5 results
|